When you browse on this site, cookies collect data to enhance your experience and personalize the content and advertising you see.
Visit our Privacy Policy to learn more. By continuing to use the site, you agree to this use of cookies and data.
  • In United Kingdom
  • List of Countries
  • For 7 days
  • Water Temperature
  • Weather Map
  • Weather Widgets
  • user-avatar
    Login

    Hourly Weather Ilmoviki

    Today, 16 October, Wednesday

    Time Temperature Precipitation Wind Pressure Humidity
    00:00 +8°C° 0 mm 5 mps 752 mmHg 90%
    01:00 +10°C° 0 mm 4 mps 752 mmHg 90%
    02:00 +10°C° 0 mm 4 mps 752 mmHg 89%
    03:00 +10°C° 0 mm 4 mps 751 mmHg 89%
    04:00 +10°C° 0 mm 4 mps 750 mmHg 89%
    05:00 +9°C° 0 mm 5 mps 750 mmHg 89%
    06:00 +10°C° 0 mm 5 mps 750 mmHg 88%
    07:00 +10°C° 0 mm 5 mps 749 mmHg 87%
    08:00 +10°C° 0 mm 5 mps 749 mmHg 86%
    09:00 +13°C° 0 mm 5 mps 749 mmHg 81%
    10:00 +14°C° 0 mm 5 mps 748 mmHg 76%
    11:00 +16°C° 0 mm 6 mps 748 mmHg 71%
    12:00 +16°C° 0 mm 5 mps 748 mmHg 68%
    13:00 +17°C° 0 mm 5 mps 748 mmHg 66%
    14:00 +17°C° 0 mm 5 mps 748 mmHg 63%
    15:00 +16°C° 0 mm 5 mps 747 mmHg 68%
    16:00 +15°C° 0 mm 4 mps 747 mmHg 72%
    17:00 +14°C° 0 mm 4 mps 746 mmHg 77%
    18:00 +13°C° 0 mm 4 mps 746 mmHg 79%
    19:00 +13°C° 0 mm 4 mps 746 mmHg 81%
    20:00 +12°C° 0 mm 4 mps 746 mmHg 83%
    21:00 +12°C° 0 mm 4 mps 746 mmHg 85%
    22:00 +12°C° 0 mm 4 mps 746 mmHg 86%
    23:00 +12°C° 0 mm 4 mps 746 mmHg 88%

    Tomorrow, 17 October, Thursday

    Time Temperature Precipitation Wind Pressure Humidity
    00:00 +12°C° 0 mm 4 mps 746 mmHg 87%
    01:00 +13°C° 0 mm 4 mps 747 mmHg 86%
    02:00 +13°C° 0 mm 4 mps 747 mmHg 85%
    03:00 +13°C° 0 mm 4 mps 747 mmHg 88%
    04:00 +12°C° 0 mm 4 mps 747 mmHg 91%
    05:00 +12°C° 0 mm 4 mps 747 mmHg 94%
    06:00 +12°C° 0 mm 4 mps 747 mmHg 92%
    07:00 +11°C° 0 mm 4 mps 746 mmHg 90%
    08:00 +11°C° 0 mm 4 mps 746 mmHg 88%
    09:00 +10°C° 0.1 mm 5 mps 747 mmHg 87%
    10:00 +10°C° 0.1 mm 5 mps 747 mmHg 85%
    11:00 +10°C° 0.1 mm 6 mps 747 mmHg 84%
    12:00 +10°C° 0.8 mm 6 mps 747 mmHg 85%
    13:00 +10°C° 0.8 mm 6 mps 747 mmHg 86%
    14:00 +10°C° 0.8 mm 6 mps 747 mmHg 88%
    15:00 +11°C° 0.4 mm 6 mps 747 mmHg 88%
    16:00 +11°C° 0.4 mm 6 mps 747 mmHg 89%
    17:00 +11°C° 0.4 mm 6 mps 748 mmHg 89%
    18:00 +11°C° 0.1 mm 6 mps 748 mmHg 90%
    19:00 +12°C° 0.1 mm 5 mps 748 mmHg 90%
    20:00 +12°C° 0.1 mm 5 mps 749 mmHg 91%
    21:00 +12°C° 0 mm 4 mps 749 mmHg 91%
    22:00 +12°C° 0 mm 4 mps 749 mmHg 92%
    23:00 +11°C° 0 mm 4 mps 750 mmHg 92%

    Day after tomorrow, 18 October, Friday

    Time Temperature Precipitation Wind Pressure Humidity
    00:00 +11°C° 0 mm 3 mps 750 mmHg 93%
    01:00 +10°C° 0 mm 3 mps 750 mmHg 94%
    02:00 +9°C° 0 mm 3 mps 750 mmHg 95%
    03:00 +9°C° 0 mm 2 mps 750 mmHg 95%
    04:00 +10°C° 0 mm 2 mps 750 mmHg 94%
    05:00 +10°C° 0 mm 2 mps 751 mmHg 93%
    06:00 +10°C° 0 mm 2 mps 751 mmHg 93%
    07:00 +10°C° 0 mm 2 mps 751 mmHg 93%
    08:00 +10°C° 0 mm 2 mps 751 mmHg 93%
    09:00 +11°C° 0 mm 3 mps 751 mmHg 90%
    10:00 +12°C° 0 mm 3 mps 751 mmHg 86%
    11:00 +13°C° 0 mm 3 mps 751 mmHg 83%
    12:00 +14°C° 0 mm 3 mps 751 mmHg 79%
    13:00 +14°C° 0 mm 3 mps 751 mmHg 76%
    14:00 +16°C° 0 mm 3 mps 751 mmHg 73%
    15:00 +14°C° 0 mm 3 mps 751 mmHg 78%
    16:00 +14°C° 0 mm 2 mps 751 mmHg 82%
    17:00 +13°C° 0 mm 2 mps 751 mmHg 87%
    18:00 +12°C° 0 mm 2 mps 751 mmHg 88%
    19:00 +12°C° 0 mm 2 mps 751 mmHg 90%
    20:00 +12°C° 0 mm 2 mps 751 mmHg 91%
    21:00 +10°C° 0 mm 2 mps 752 mmHg 92%
    22:00 +10°C° 0 mm 2 mps 752 mmHg 92%
    23:00 +10°C° 0 mm 2 mps 752 mmHg 93%

    19 October, Saturday

    Time Temperature Precipitation Wind Pressure Humidity
    00:00 +10°C° 0 mm 2 mps 752 mmHg 92%
    01:00 +10°C° 0 mm 2 mps 752 mmHg 91%
    02:00 +11°C° 0 mm 1 mps 751 mmHg 91%
    03:00 +10°C° 0 mm 2 mps 751 mmHg 91%
    04:00 +10°C° 0 mm 2 mps 751 mmHg 92%
    05:00 +9°C° 0 mm 2 mps 751 mmHg 93%
    06:00 +10°C° 0 mm 2 mps 751 mmHg 93%
    07:00 +10°C° 0 mm 2 mps 751 mmHg 93%
    08:00 +10°C° 0 mm 2 mps 751 mmHg 92%
    09:00 +12°C° 0 mm 2 mps 751 mmHg 89%
    10:00 +13°C° 0 mm 2 mps 752 mmHg 85%
    11:00 +14°C° 0 mm 3 mps 752 mmHg 81%
    12:00 +15°C° 0 mm 2 mps 752 mmHg 80%
    13:00 +16°C° 0 mm 2 mps 751 mmHg 78%
    14:00 +17°C° 0 mm 2 mps 751 mmHg 76%
    15:00 +16°C° 0 mm 2 mps 751 mmHg 81%
    16:00 +15°C° 0 mm 2 mps 751 mmHg 85%
    17:00 +14°C° 0 mm 1 mps 751 mmHg 90%
    18:00 +14°C° 0 mm 2 mps 751 mmHg 90%
    19:00 +13°C° 0 mm 2 mps 751 mmHg 91%
    20:00 +13°C° 0 mm 2 mps 751 mmHg 92%
    21:00 +13°C° 0 mm 2 mps 751 mmHg 92%
    22:00 +12°C° 0 mm 2 mps 751 mmHg 92%
    23:00 +12°C° 0 mm 2 mps 751 mmHg 91%

    20 October, Sunday

    Time Temperature Precipitation Wind Pressure Humidity
    00:00 +12°C° 0 mm 2 mps 751 mmHg 92%
    01:00 +12°C° 0 mm 2 mps 751 mmHg 93%
    02:00 +10°C° 0 mm 2 mps 751 mmHg 93%
    03:00 +10°C° 0 mm 2 mps 751 mmHg 93%
    04:00 +10°C° 0 mm 2 mps 751 mmHg 94%
    05:00 +10°C° 0 mm 2 mps 751 mmHg 94%
    06:00 +10°C° 0 mm 3 mps 751 mmHg 92%
    07:00 +10°C° 0 mm 3 mps 751 mmHg 90%
    08:00 +11°C° 0 mm 3 mps 751 mmHg 89%
    09:00 +12°C° 0 mm 3 mps 751 mmHg 85%
    10:00 +13°C° 0 mm 3 mps 751 mmHg 81%
    11:00 +14°C° 0 mm 3 mps 751 mmHg 76%
    12:00 +14°C° 0 mm 3 mps 751 mmHg 74%
    13:00 +15°C° 0 mm 4 mps 751 mmHg 72%
    14:00 +17°C° 0 mm 4 mps 750 mmHg 70%
    15:00 +16°C° 0 mm 3 mps 750 mmHg 75%
    16:00 +14°C° 0 mm 3 mps 750 mmHg 79%
    17:00 +14°C° 0 mm 2 mps 750 mmHg 84%
    18:00 +13°C° 0 mm 2 mps 751 mmHg 86%
    19:00 +13°C° 0 mm 2 mps 751 mmHg 89%
    20:00 +12°C° 0 mm 2 mps 751 mmHg 91%
    21:00 +12°C° 0 mm 2 mps 751 mmHg 92%
    22:00 +10°C° 0 mm 2 mps 751 mmHg 93%
    23:00 +10°C° 0 mm 2 mps 751 mmHg 93%

    21 October, Monday

    Time Temperature Precipitation Wind Pressure Humidity
    00:00 +10°C° 0 mm 2 mps 752 mmHg 93%
    01:00 +10°C° 0 mm 2 mps 752 mmHg 94%
    02:00 +10°C° 0 mm 2 mps 752 mmHg 94%
    03:00 +10°C° 0 mm 2 mps 752 mmHg 94%
    04:00 +10°C° 0 mm 2 mps 752 mmHg 94%
    05:00 +10°C° 0 mm 2 mps 752 mmHg 94%
    06:00 +12°C° 0 mm 2 mps 752 mmHg 94%
    07:00 +12°C° 0 mm 2 mps 752 mmHg 94%
    08:00 +12°C° 0 mm 2 mps 752 mmHg 94%
    09:00 +13°C° 0 mm 2 mps 752 mmHg 90%
    10:00 +14°C° 0 mm 2 mps 752 mmHg 87%
    11:00 +15°C° 0 mm 2 mps 753 mmHg 83%
    12:00 +15°C° 0 mm 2 mps 753 mmHg 82%
    13:00 +16°C° 0 mm 3 mps 753 mmHg 81%
    14:00 +16°C° 0 mm 3 mps 753 mmHg 79%
    15:00 +14°C° 0 mm 3 mps 753 mmHg 84%
    16:00 +14°C° 0 mm 2 mps 753 mmHg 88%
    17:00 +13°C° 0 mm 2 mps 753 mmHg 92%
    18:00 +13°C° 0 mm 2 mps 754 mmHg 93%
    19:00 +12°C° 0 mm 2 mps 754 mmHg 93%
    20:00 +12°C° 0 mm 2 mps 754 mmHg 94%
    21:00 +12°C° 0 mm 2 mps 754 mmHg 93%
    22:00 +12°C° 0 mm 2 mps 755 mmHg 93%
    23:00 +10°C° 0 mm 2 mps 755 mmHg 92%
    Show more